PBO Station Position Time Series. Reference Frame : NAM14
Format Version,1.1.0
4-character ID,MTLW
Station name,Lewistown
Begin Date, 2011-03-08
End Date, 2019-10-07
Release Date, 2019-10-08
Reference position, 47.0541530141 North Latitude, -109.4427274918 East Longitude, 1236.35422 meters elevation,
Date, North (mm), East (mm), Vertical (mm), North Std. Deviation (mm), East Std. Deviation (mm),              Vertical Std. Deviation (mm), Quality,
2011-03-08,0.00, 0.00, 0.00, 2.09, 1.45, 6.59, repro,
2011-03-09,-2.87, -0.42, -8.48, 2.09, 1.48, 6.67, repro,
2011-03-10,-2.05, 0.27, -2.66, 2.15, 1.50, 6.79, repro,
2011-03-11,-2.22, -0.04, -2.36, 2.16, 1.49, 6.79, repro,
2011-03-12,-1.99, -0.02, -6.41, 2.13, 1.47, 6.75, repro,
2011-03-13,-1.54, -0.01, -2.30, 2.12, 1.47, 6.71, repro,
2011-03-14,-2.75, 0.86, 0.97, 2.15, 1.50, 6.77, repro,
2011-03-15,-3.25, -0.31, -3.39, 2.09, 1.47, 6.61, repro,
2011-03-16,-2.76, 0.04, -3.50, 2.19, 1.52, 6.90, repro,
2011-03-17,-1.66, -0.08, 1.12, 2.24, 1.53, 6.98, repro,
2011-03-18,-1.23, 0.10, -11.93, 2.20, 1.50, 6.88, repro,
2011-03-19,-2.37, -0.94, -10.11, 2.23, 1.57, 7.31, repro,
2011-03-20,-2.83, -0.19, -1.96, 2.13, 1.48, 6.69, repro,
2011-03-21,-2.77, -0.09, 1.35, 2.24, 1.54, 7.00, repro,
2011-03-22,-1.37, 0.28, 3.18, 2.23, 1.53, 6.99, repro,
2011-03-23,-2.23, -1.20, -2.09, 2.21, 1.54, 7.07, repro,
2011-03-24,-2.02, -0.64, 0.28, 2.14, 1.47, 6.75, repro,
2011-03-25,-2.75, -0.90, -0.24, 2.15, 1.49, 6.80, repro,
2011-03-26,-1.25, -0.67, 2.29, 2.17, 1.49, 6.79, repro,
2011-03-27,-1.75, -0.48, 3.94, 2.14, 1.48, 6.72, repro,
2011-03-28,-2.14, 0.53, -2.24, 2.14, 1.48, 6.74, repro,
2011-03-29,-3.02, -0.60, -6.42, 2.16, 1.48, 6.76, repro,
2011-03-30,-2.72, -1.80, -5.36, 2.14, 1.47, 6.71, repro,
2011-03-31,-4.38, -1.03, -3.58, 2.19, 1.50, 6.84, repro,
2011-04-01,-3.03, -1.50, 1.11, 2.19, 1.50, 6.83, repro,
2011-04-02,-1.58, 0.03, -1.51, 2.23, 1.55, 6.94, repro,
2011-04-03,-3.53, -0.44, -2.26, 2.17, 1.50, 6.83, repro,
2011-04-04,-2.30, -1.01, 2.54, 2.14, 1.49, 6.75, repro,
2011-04-05,-3.37, -1.08, -1.62, 2.22, 1.58, 7.30, repro,
2011-04-06,-3.29, -0.94, -3.58, 2.15, 1.49, 6.86, repro,
2011-04-07,-4.04, -0.19, 5.07, 2.13, 1.48, 6.72, repro,
2011-04-08,-3.09, -0.42, -4.49, 2.12, 1.47, 6.70, repro,
2011-04-09,-3.02, -0.96, 4.53, 2.16, 1.50, 6.84, repro,
2011-04-10,-3.47, -0.55, 9.64, 2.46, 1.69, 7.68, repro,
2011-04-11,-2.69, -0.71, -4.74, 2.39, 1.68, 7.60, repro,
2011-04-12,-2.31, -0.80, -4.02, 2.20, 1.54, 6.96, repro,
2011-04-13,-2.12, -0.14, -8.99, 2.10, 1.46, 6.63, repro,
2011-04-14,-1.90, 0.62, -11.92, 2.19, 1.54, 7.01, repro,
2011-04-15,-1.05, 0.83, -15.50, 2.47, 1.71, 7.73, repro,
2011-04-17,-2.23, -2.02, 0.57, 2.12, 1.47, 6.73, repro,
2011-04-18,-2.22, -0.90, 2.55, 2.11, 1.47, 6.68, repro,
2011-04-19,-2.40, -0.47, 1.01, 2.11, 1.48, 6.67, repro,
2011-04-20,-1.49, -0.74, -7.89, 2.10, 1.46, 6.67, repro,
2011-04-21,-4.79, -0.99, -6.36, 2.17, 1.48, 6.87, repro,
2011-04-22,-3.29, -1.17, -1.23, 2.25, 1.56, 7.09, repro,
2011-04-24,-3.01, -0.66, 2.20, 2.11, 1.47, 6.68, repro,
2011-04-25,-2.07, -0.87, -3.61, 2.11, 1.47, 6.72, repro,
2011-04-26,-2.83, -0.90, -3.06, 2.12, 1.47, 6.68, repro,
2011-04-27,-4.23, -1.31, -4.25, 2.11, 1.46, 6.66, repro,
2011-04-28,-3.76, -1.79, -6.71, 2.12, 1.47, 6.69, repro,
2011-04-29,-3.05, -1.28, -2.59, 2.12, 1.48, 6.74, repro,
2011-04-30,-2.54, -0.78, -4.35, 2.09, 1.47, 6.67, repro,
2011-05-01,-2.02, 1.12, -14.56, 2.12, 1.48, 6.76, repro,
2011-05-02,-3.33, -0.86, -14.95, 2.13, 1.47, 6.73, repro,
2011-05-03,-4.33, -2.10, -13.67, 2.15, 1.51, 6.84, repro,
2011-05-04,-3.59, -1.20, -11.09, 2.15, 1.50, 6.82, repro,
2011-05-05,-3.68, -1.10, -10.93, 2.15, 1.49, 6.84, repro,
2011-05-06,-3.54, -0.75, -5.58, 2.18, 1.50, 6.94, repro,
2011-05-07,-2.94, -2.00, -4.44, 2.16, 1.52, 6.88, repro,
2011-05-08,-3.22, -1.34, -3.24, 2.15, 1.52, 6.85, repro,
2011-05-09,-2.71, -1.41, -9.46, 2.17, 1.52, 6.85, repro,
2011-05-10,-3.18, -2.87, -6.51, 2.13, 1.50, 6.79, repro,
2011-05-11,-0.87, -0.36, -7.21, 2.13, 1.48, 6.75, repro,
2011-05-12,-0.61, -0.33, -13.79, 2.13, 1.47, 6.74, repro,
2011-05-13,-1.63, -0.53, -19.79, 2.36, 1.66, 7.60, repro,
2011-05-14,-1.27, -1.76, -13.61, 2.19, 1.52, 6.84, repro,
2011-05-15,-1.04, 0.52, -13.06, 2.13, 1.50, 6.75, repro,
2011-05-16,-1.86, 0.61, -4.60, 2.15, 1.50, 6.80, repro,
2011-05-17,-0.87, -0.42, -8.35, 2.16, 1.51, 6.86, repro,
2011-05-18,-1.29, -0.36, -10.00, 2.15, 1.50, 6.79, repro,
2011-05-19,-0.88, -1.48, -9.72, 2.19, 1.54, 6.92, repro,
2011-05-20,-3.04, -1.73, -11.24, 2.16, 1.51, 6.84, repro,
2011-05-21,-1.46, -0.41, -11.26, 2.18, 1.54, 6.99, repro,
2011-05-22,-0.84, -0.89, -9.25, 2.17, 1.51, 6.88, repro,
2011-05-23,-1.00, -0.83, -6.25, 2.16, 1.51, 6.86, repro,
2011-05-24,-0.89, 0.09, -15.17, 2.16, 1.51, 6.84, repro,
2011-05-25,-1.53, -0.69, -9.79, 2.14, 1.50, 6.80, repro,
2011-05-26,-1.75, 0.16, -4.02, 2.15, 1.51, 6.84, repro,
2011-05-27,-1.40, -0.49, -6.21, 2.14, 1.49, 6.77, repro,
2011-05-28,-0.76, -0.92, -6.92, 2.18, 1.51, 6.90, repro,
2011-05-29,-0.13, -1.08, -6.19, 2.16, 1.49, 6.82, repro,
2011-05-30,-1.90, -0.98, -12.82, 2.16, 1.49, 6.80, repro,
2011-05-31,-1.97, -0.64, -15.73, 2.15, 1.50, 6.77, repro,
2011-06-01,-3.32, -0.30, -11.46, 2.15, 1.50, 6.76, repro,
2011-06-02,-2.14, -0.28, -4.11, 2.25, 1.59, 7.13, repro,
2011-06-03,-0.83, -1.31, -9.55, 2.16, 1.49, 6.79, repro,
2011-06-04,-1.32, 0.19, -18.01, 2.15, 1.50, 6.79, repro,
2011-06-05,-1.51, -0.13, -12.49, 2.15, 1.50, 6.79, repro,
2011-06-06,-0.46, -0.07, -2.59, 3.26, 2.24, 9.94, repro,
2011-06-07,-2.06, -1.11, -7.27, 2.15, 1.50, 6.82, repro,
2011-06-08,0.35, -1.17, -10.18, 2.14, 1.50, 6.80, repro,
2011-06-09,-0.03, -1.14, -12.04, 2.16, 1.51, 6.82, repro,
2011-06-10,-1.61, -1.27, -16.83, 2.14, 1.49, 6.75, repro,
2011-06-11,-0.01, -0.05, -5.51, 2.20, 1.54, 6.91, repro,
2011-06-12,-0.56, -1.12, -6.75, 2.16, 1.51, 6.80, repro,
2011-06-13,-1.25, -0.98, -6.76, 2.14, 1.50, 6.78, repro,
2011-06-14,-0.66, -1.67, -3.50, 2.16, 1.50, 6.81, repro,
2011-06-15,-2.45, -1.11, -11.78, 2.19, 1.54, 6.96, repro,
2011-06-16,-0.87, -0.86, -9.73, 2.14, 1.50, 6.79, repro,
2011-06-17,-1.40, -1.03, -2.10, 2.20, 1.54, 6.92, repro,
2011-06-18,-1.30, -1.67, 0.81, 2.20, 1.53, 6.88, repro,
2011-06-19,-0.14, 0.01, -1.21, 2.16, 1.49, 6.80, repro,
2011-06-20,-0.68, -0.75, -5.32, 2.19, 1.54, 7.00, repro,
2011-06-21,0.31, -0.17, -11.24, 2.14, 1.51, 6.82, repro,
2011-06-22,-1.72, -0.91, -4.00, 2.15, 1.50, 6.80, repro,
2011-06-23,-0.51, -1.57, -5.17, 2.16, 1.51, 6.85, repro,
2011-06-24,-1.04, -0.53, -7.38, 2.21, 1.54, 7.02, repro,
2011-06-25,0.45, 0.45, -5.37, 2.17, 1.50, 6.83, repro,
2011-06-26,-0.27, -0.98, -5.47, 2.15, 1.51, 6.81, repro,
2011-06-27,-1.41, 0.16, -9.86, 2.14, 1.50, 6.76, repro,
2011-06-28,-1.92, 0.36, -3.23, 2.15, 1.50, 6.79, repro,
2011-06-29,1.67, 0.48, 10.09, 2.18, 1.51, 6.88, repro,
2011-06-30,1.18, -1.45, -0.42, 2.24, 1.59, 7.14, repro,
2011-07-01,0.51, -1.10, -2.20, 2.15, 1.51, 6.79, repro,
2011-07-02,-0.62, -1.17, -10.38, 2.16, 1.52, 6.83, repro,
2011-07-03,-1.34, -1.14, -6.43, 2.17, 1.52, 6.90, repro,
2011-07-04,-1.12, -2.17, -2.24, 2.52, 1.70, 7.94, repro,
2011-07-05,1.82, -1.78, -2.39, 2.17, 1.50, 6.81, repro,
2011-07-06,0.84, -1.21, -8.15, 2.15, 1.51, 6.80, repro,
2011-07-07,-0.68, -1.74, -6.44, 2.25, 1.57, 7.23, repro,
2011-07-08,-2.35, -2.22, -2.97, 2.18, 1.51, 6.84, repro,
2011-07-09,-1.01, -0.33, -0.11, 2.17, 1.51, 6.85, repro,
2011-07-10,-0.20, -1.66, 3.52, 2.15, 1.50, 6.80, repro,
2011-07-11,0.51, -0.74, 1.90, 2.24, 1.56, 7.20, repro,
2011-07-12,-0.47, -1.07, -5.71, 2.16, 1.51, 6.88, repro,
2011-07-13,-2.15, -0.01, -7.78, 2.27, 1.60, 7.28, repro,
2011-07-14,1.28, -1.42, 2.22, 2.20, 1.52, 6.94, repro,
2011-07-15,-1.24, -1.59, -2.37, 2.16, 1.51, 6.84, repro,
2011-07-16,0.38, -1.31, -3.38, 2.32, 1.68, 7.45, repro,
2011-07-17,0.32, -2.21, -7.53, 2.15, 1.49, 6.73, repro,
2011-07-18,0.33, -0.12, -9.21, 2.22, 1.56, 7.10, repro,
2011-07-19,-1.14, -1.72, 2.97, 2.21, 1.53, 6.96, repro,
2011-07-20,0.61, -3.33, 1.54, 2.37, 1.63, 7.35, repro,
2011-07-21,-0.37, -2.11, 3.63, 2.15, 1.50, 6.81, repro,
2011-07-22,0.89, -2.06, -0.94, 2.14, 1.49, 6.77, repro,
2011-07-23,0.23, -2.18, -11.27, 2.14, 1.49, 6.75, repro,
2011-07-24,-0.33, -1.44, -2.95, 2.16, 1.50, 6.82, repro,
2011-07-25,-0.09, -1.44, 2.05, 2.21, 1.53, 7.00, repro,
2011-07-26,0.54, -1.41, 0.26, 2.19, 1.51, 6.89, repro,
2011-07-27,0.38, -3.07, 2.03, 2.18, 1.51, 6.88, repro,
2011-07-28,0.24, -2.65, -1.70, 2.16, 1.52, 6.86, repro,
2011-07-29,-0.92, -0.41, -4.37, 2.16, 1.50, 6.83, repro,
2011-07-30,0.47, -3.12, -0.24, 2.17, 1.52, 6.87, repro,
2011-07-31,0.63, -1.93, -1.61, 2.17, 1.50, 6.85, repro,
2011-08-01,-2.44, -2.27, -2.76, 2.16, 1.50, 6.87, repro,
2011-08-02,-0.47, -2.11, -1.43, 2.20, 1.55, 7.04, repro,
2011-08-03,-0.67, -2.02, -0.45, 2.21, 1.56, 7.09, repro,
2011-08-04,-1.96, -3.78, 2.58, 2.15, 1.51, 6.84, repro,
2011-08-05,-1.62, -2.57, 4.54, 2.20, 1.53, 6.92, repro,
2011-08-06,0.61, -1.86, -7.50, 2.21, 1.56, 7.02, repro,
2011-08-07,1.11, -1.89, 4.95, 2.16, 1.50, 6.83, repro,
2011-08-08,0.42, -0.84, 0.77, 2.13, 1.49, 6.75, repro,
2011-08-09,-3.16, -4.23, -7.22, 2.15, 1.51, 6.85, repro,
2011-08-10,-0.22, -3.95, -0.00, 2.17, 1.51, 6.84, repro,
2011-08-11,0.26, -3.28, 8.51, 2.27, 1.58, 7.17, repro,
2011-08-12,0.12, -1.04, -4.43, 2.25, 1.57, 7.13, repro,
2011-08-13,0.61, -2.42, -1.63, 2.18, 1.53, 6.93, repro,
2011-08-14,0.32, -2.14, 1.17, 2.18, 1.53, 6.94, repro,
2011-08-15,0.30, -3.06, -1.35, 2.21, 1.54, 7.00, repro,
2011-08-16,-1.43, -3.18, -7.31, 2.19, 1.54, 6.94, repro,
2011-08-17,0.96, -0.90, -6.82, 2.18, 1.52, 6.90, repro,
2011-08-18,0.68, -1.00, -1.01, 2.15, 1.51, 6.84, repro,
2011-08-19,0.50, -1.73, 0.82, 2.15, 1.50, 6.81, repro,
2011-08-20,0.50, -1.65, -3.03, 2.28, 1.63, 7.60, repro,
2011-08-21,0.28, -1.45, -3.99, 2.17, 1.51, 6.86, repro,
2011-08-22,-1.09, -3.20, 2.34, 2.16, 1.51, 6.82, repro,
2011-08-23,-1.12, -2.30, 4.29, 2.22, 1.58, 7.10, repro,
2011-08-24,1.45, -1.41, 3.55, 2.16, 1.51, 6.87, repro,
2011-08-25,-0.84, -0.99, 6.40, 2.16, 1.50, 6.84, repro,
2011-08-26,-1.20, -2.30, 5.86, 2.23, 1.57, 7.10, repro,
2011-08-27,-0.42, -3.05, -5.91, 2.25, 1.56, 7.08, repro,
2011-08-28,-1.65, -2.76, -3.09, 2.19, 1.54, 6.91, repro,
2011-08-29,-0.14, -0.69, -0.01, 2.21, 1.53, 6.96, repro,
2011-08-30,-1.32, -2.49, 3.69, 2.24, 1.55, 7.04, repro,
2011-08-31,0.15, -0.46, 3.25, 2.23, 1.54, 7.01, repro,
2011-09-01,-0.63, -1.79, 0.25, 2.25, 1.53, 7.07, repro,
2011-09-02,-0.74, -1.60, 5.28, 2.23, 1.51, 6.97, repro,
2011-09-03,-1.65, -2.72, 3.15, 2.15, 1.50, 6.82, repro,
2011-09-04,-1.14, -0.33, 0.39, 2.15, 1.49, 6.81, repro,
2011-09-05,-0.61, 0.61, -0.15, 2.14, 1.49, 6.75, repro,
2011-09-06,-1.10, -1.26, 0.53, 2.16, 1.51, 6.87, repro,
2011-09-07,-0.80, -1.87, -1.76, 2.20, 1.54, 7.00, repro,
2011-09-08,-2.03, -0.77, -8.30, 2.18, 1.52, 6.89, repro,
2011-09-09,-0.72, -1.77, -3.06, 2.20, 1.54, 7.00, repro,
2011-09-10,-2.55, -2.03, 5.57, 2.20, 1.54, 6.98, repro,
2011-09-11,-0.49, -1.92, 1.98, 2.17, 1.53, 6.90, repro,
2011-09-12,-2.05, -2.12, -6.10, 2.17, 1.54, 6.94, repro,
2011-09-13,-1.21, -1.88, -2.24, 2.18, 1.54, 6.94, repro,
2011-09-14,-0.92, -1.60, -5.54, 2.16, 1.51, 6.82, repro,
2011-09-15,-2.36, -1.25, 7.67, 2.14, 1.50, 6.81, repro,
2011-09-16,-1.90, -1.90, 9.17, 2.19, 1.53, 6.91, repro,
2011-09-17,-1.49, -2.77, 2.74, 2.15, 1.51, 6.82, repro,
2011-09-18,-1.47, -3.13, 8.84, 2.16, 1.51, 6.84, repro,
2011-09-19,-1.57, -3.73, 2.43, 2.24, 1.55, 7.01, repro,
2011-09-20,-0.74, 0.38, 4.28, 2.20, 1.53, 6.88, repro,
2011-09-21,-2.05, -0.34, 3.67, 2.14, 1.50, 6.76, repro,
2011-09-22,-2.67, -0.96, 6.00, 2.16, 1.53, 6.84, repro,
2011-09-23,-3.35, -1.58, 10.04, 2.19, 1.54, 6.92, repro,
2011-09-24,-2.96, 0.08, 4.34, 2.16, 1.51, 6.82, repro,
2011-09-25,-3.20, -1.08, 6.59, 2.16, 1.51, 6.83, repro,
2011-09-26,-3.72, -0.45, 14.75, 2.23, 1.54, 7.01, repro,
2011-09-27,-4.53, -1.52, 11.37, 2.16, 1.52, 6.85, repro,
2011-09-28,-4.31, -1.53, 12.31, 2.19, 1.56, 6.95, repro,
2011-09-29,-2.75, -0.39, 0.67, 2.24, 1.59, 7.08, repro,
2011-09-30,-2.38, -0.59, 1.19, 2.27, 1.62, 7.23, repro,
2011-10-01,-4.34, -0.84, 5.10, 2.24, 1.59, 7.15, repro,
2011-10-02,-3.08, -0.94, 10.57, 2.23, 1.58, 7.10, repro,
2011-10-03,-1.84, -0.80, 5.97, 2.20, 1.57, 7.03, repro,
2011-10-04,-1.76, 0.88, 8.44, 2.17, 1.54, 6.93, repro,
2011-10-05,-1.79, 0.68, 13.74, 2.18, 1.54, 6.92, repro,
2011-10-06,-3.64, -1.49, 10.48, 2.19, 1.54, 6.93, repro,
2011-10-07,-3.72, -0.69, 16.31, 2.19, 1.55, 6.99, repro,
2011-10-08,-3.09, -1.52, 5.19, 2.18, 1.54, 6.93, repro,
2011-10-09,-0.79, 0.41, 7.07, 2.18, 1.54, 6.94, repro,
2011-10-10,-1.33, 0.22, 11.99, 2.18, 1.54, 6.94, repro,
2011-10-11,-2.44, -1.13, 8.02, 2.22, 1.59, 7.09, repro,
2011-10-12,-3.33, -2.30, 1.47, 2.20, 1.55, 6.98, repro,
2011-10-13,-1.03, -0.42, 1.01, 2.23, 1.59, 7.09, repro,
2011-10-14,-1.56, -1.14, 10.89, 2.17, 1.54, 6.91, repro,
2011-10-15,-1.30, 0.31, 8.10, 2.15, 1.51, 6.81, repro,
2011-10-16,-2.03, -1.39, 7.95, 2.14, 1.51, 6.82, repro,
2011-10-17,-1.82, -0.05, -5.83, 2.16, 1.50, 6.81, repro,
2011-10-18,-0.89, -0.05, 2.40, 2.19, 1.54, 6.88, repro,
2011-10-19,-1.74, 0.07, 3.47, 2.24, 1.60, 7.13, repro,
2011-10-20,-2.06, -0.55, 10.98, 2.15, 1.51, 6.83, repro,
2011-10-21,-2.42, 0.23, 6.43, 2.15, 1.51, 6.84, repro,
2011-10-22,-2.71, -1.85, 1.05, 2.14, 1.50, 6.83, repro,
2011-10-23,-3.39, -0.70, 5.33, 2.17, 1.50, 6.83, repro,
2011-10-24,-2.08, -0.29, 3.04, 2.15, 1.49, 6.78, repro,
2011-10-25,-1.11, 0.54, 5.63, 2.30, 1.60, 7.41, repro,
2011-10-26,-1.84, 0.08, 3.62, 2.14, 1.51, 6.80, repro,
2011-10-27,-1.92, -1.20, 9.72, 2.13, 1.50, 6.78, repro,
2011-10-28,-1.83, -1.17, 6.05, 2.17, 1.53, 6.97, repro,
2011-10-29,-1.83, -1.51, 10.10, 2.14, 1.51, 6.81, repro,
2011-10-30,-2.80, 0.63, 8.69, 2.14, 1.49, 6.74, repro,
2011-10-31,-1.46, -0.89, 16.75, 2.14, 1.51, 6.82, repro,
2011-11-01,-2.03, -0.70, 5.87, 2.17, 1.55, 6.95, repro,
2011-11-02,-2.30, -0.20, 6.96, 2.13, 1.49, 6.74, repro,
2011-11-03,-2.79, -0.78, 8.20, 2.17, 1.54, 6.96, repro,
2011-11-04,-2.42, 0.03, 11.25, 2.19, 1.53, 6.92, repro,
2011-11-05,-2.67, -1.39, 16.85, 2.19, 1.50, 6.87, repro,
2011-11-06,-1.17, -0.87, 15.98, 2.19, 1.52, 6.89, repro,
2011-11-07,-1.05, -1.02, 5.37, 2.18, 1.51, 6.87, repro,
2011-11-08,-1.19, -1.12, 2.72, 2.18, 1.52, 6.92, repro,
2011-11-09,-1.28, -1.12, -3.50, 2.19, 1.54, 6.94, repro,
2011-11-10,-3.99, 0.07, -2.28, 2.20, 1.51, 6.86, repro,
2011-11-11,-2.32, -0.47, 7.65, 2.15, 1.51, 6.79, repro,
2011-11-12,-1.32, -0.05, 12.70, 2.15, 1.50, 6.77, repro,
2011-11-13,-2.74, -0.62, 21.99, 2.15, 1.50, 6.77, repro,
2011-11-14,-2.45, -0.62, 16.28, 2.24, 1.56, 7.08, repro,
2011-11-15,-0.62, -1.40, 11.20, 2.14, 1.49, 6.72, repro,
2011-11-16,-0.60, -1.91, 1.52, 2.18, 1.51, 6.85, repro,
2011-11-17,-2.52, -1.12, 8.77, 2.18, 1.51, 6.87, repro,
2011-11-18,-0.75, -0.49, 8.17, 2.24, 1.54, 7.04, repro,
2011-11-19,0.96, 0.05, 8.69, 2.19, 1.53, 6.91, repro,
2011-11-20,-0.43, 0.40, 8.02, 2.15, 1.49, 6.75, repro,
2011-11-21,-1.93, -0.88, 5.82, 2.15, 1.50, 6.72, repro,
2011-11-22,-2.64, -1.98, 4.14, 2.16, 1.51, 6.81, repro,
2011-11-23,-1.42, -0.95, 6.70, 2.28, 1.54, 7.05, repro,
2011-11-24,-2.35, -1.63, 3.98, 2.17, 1.50, 6.75, repro,
2011-11-25,-1.30, -0.32, 5.89, 2.24, 1.55, 7.01, repro,
2011-11-26,-1.88, -0.36, -7.43, 2.15, 1.50, 6.77, repro,
2011-11-27,-2.21, -1.88, -2.90, 2.16, 1.51, 6.84, repro,
2011-11-28,-2.62, -1.94, 2.98, 2.19, 1.57, 7.01, repro,
2011-11-29,-2.66, -0.08, 1.36, 2.15, 1.50, 6.77, repro,
2011-11-30,-2.15, -0.04, 2.72, 2.25, 1.55, 7.05, repro,
2011-12-01,-0.46, -0.92, -6.53, 2.13, 1.49, 6.76, repro,
2011-12-02,-2.28, -0.84, 1.38, 2.25, 1.56, 7.06, repro,
2011-12-03,-1.25, -2.85, -2.95, 2.41, 1.70, 7.49, repro,
2011-12-04,-1.40, -1.31, -6.78, 2.20, 1.55, 6.96, repro,
2011-12-05,0.56, 0.19, -6.52, 2.17, 1.53, 6.88, repro,
2011-12-06,0.18, 0.41, -4.72, 2.25, 1.58, 7.06, repro,
2011-12-07,-0.88, -0.21, -0.96, 2.17, 1.54, 6.93, repro,
2011-12-08,-1.29, -0.59, 1.16, 2.18, 1.53, 6.93, repro,
2011-12-09,-2.61, 0.69, 1.75, 2.19, 1.54, 6.89, repro,
2011-12-10,-2.20, 0.51, 0.38, 2.19, 1.53, 6.89, repro,
2011-12-11,0.23, -0.61, 6.35, 2.19, 1.53, 6.90, repro,
2011-12-12,-0.33, 1.22, 2.32, 2.18, 1.53, 6.91, repro,
2011-12-13,-0.81, 0.54, 5.34, 2.18, 1.54, 6.91, repro,
2011-12-14,-1.59, -0.85, 5.41, 2.18, 1.53, 6.86, repro,
2011-12-15,-0.92, -0.37, 2.91, 2.23, 1.58, 7.03, repro,
2011-12-16,-1.32, 0.17, 2.47, 2.23, 1.58, 7.01, repro,
2011-12-17,-1.95, -1.53, 0.06, 2.11, 1.47, 6.68, repro,
2011-12-18,-2.90, -0.56, 3.58, 2.12, 1.47, 6.72, repro,
2011-12-19,-0.59, 0.67, 7.07, 2.14, 1.49, 6.76, repro,
2011-12-20,-3.81, -0.60, 12.47, 2.21, 1.55, 6.94, repro,
2011-12-21,-2.48, -1.93, 5.66, 2.10, 1.46, 6.65, repro,
2011-12-22,-0.77, -0.48, 1.18, 2.11, 1.47, 6.71, repro,
2011-12-23,-1.78, 0.03, 1.60, 2.14, 1.51, 6.80, repro,
2011-12-24,-0.92, -0.99, -2.51, 2.14, 1.50, 6.81, repro,
2011-12-25,-3.07, 1.18, -2.08, 2.17, 1.52, 6.91, repro,
2011-12-26,-1.82, -2.56, 5.91, 2.14, 1.51, 6.80, repro,
2011-12-27,-0.77, -1.27, 3.32, 2.15, 1.50, 6.79, repro,
2011-12-28,-2.07, -2.57, 9.07, 2.16, 1.51, 6.86, repro,
2011-12-29,-2.23, 0.34, 9.83, 2.15, 1.50, 6.80, repro,
2011-12-30,-2.30, -0.70, 6.90, 2.15, 1.51, 6.87, repro,
2011-12-31,-1.64, -2.45, 2.48, 2.12, 1.48, 6.75, repro,
2012-01-01,-0.40, -0.83, -3.16, 2.13, 1.47, 6.72, repro,
2012-01-02,-0.85, -0.30, -1.39, 2.11, 1.46, 6.66, repro,
2012-01-03,-1.81, -0.30, 5.77, 2.12, 1.48, 6.75, repro,
2012-01-04,-2.53, -0.40, 4.02, 2.14, 1.49, 6.80, repro,
2012-01-05,-2.43, -1.05, 4.32, 2.16, 1.51, 6.85, repro,
2012-01-06,-0.05, -1.30, 5.06, 2.13, 1.47, 6.70, repro,
2012-01-07,-0.05, 0.01, 5.33, 2.16, 1.50, 6.79, repro,
2012-01-08,-1.72, -0.37, 6.79, 2.10, 1.46, 6.66, repro,
2012-01-09,-3.28, -2.36, 5.80, 2.12, 1.48, 6.71, repro,
2012-01-10,-2.27, -1.77, -0.28, 2.12, 1.47, 6.70, repro,
2012-01-11,-0.76, -0.14, -0.29, 2.18, 1.53, 6.95, repro,
2012-01-12,-1.97, -1.12, 6.72, 2.13, 1.46, 6.69, repro,
2012-01-13,0.20, -0.48, -3.09, 2.14, 1.50, 6.80, repro,
2012-01-14,-0.13, -1.30, 6.26, 2.14, 1.50, 6.83, repro,
2012-01-15,-1.17, -1.69, 1.93, 2.10, 1.47, 6.68, repro,
2012-01-16,-0.84, -0.26, 0.08, 2.10, 1.47, 6.69, repro,
2012-01-17,0.56, -1.71, -0.57, 2.15, 1.49, 6.83, repro,
2012-01-18,0.98, -1.81, 9.23, 2.14, 1.49, 6.81, repro,
2012-01-19,0.63, -0.58, 15.44, 2.13, 1.50, 6.85, repro,
2012-01-20,0.78, 1.02, 3.30, 2.13, 1.50, 6.85, repro,
2012-01-21,-1.80, 1.83, 21.12, 2.10, 1.48, 6.72, repro,
2012-01-22,-1.22, -1.65, 10.69, 2.15, 1.51, 6.93, repro,
2012-01-23,0.34, -1.86, 8.24, 2.14, 1.49, 6.81, repro,
2012-01-24,-0.63, -1.08, 9.26, 2.17, 1.53, 6.94, repro,
2012-01-25,-3.07, -0.46, 1.54, 2.17, 1.54, 7.00, repro,
2012-01-26,-1.64, -1.48, 4.64, 2.22, 1.58, 7.12, repro,
2012-01-27,-2.28, -2.61, -3.01, 2.13, 1.50, 6.79, repro,
2012-01-28,-1.84, -3.52, -3.71, 2.58, 1.83, 8.42, repro,
2012-01-29,-1.49, -1.06, 1.81, 2.16, 1.49, 6.84, repro,
2012-01-30,-1.20, -0.45, 7.87, 2.12, 1.48, 6.72, repro,
2012-01-31,-2.10, -2.23, 12.37, 2.09, 1.47, 6.68, repro,
2012-02-01,-1.18, -1.31, 5.02, 2.14, 1.50, 6.85, repro,
2012-02-02,-0.64, -2.09, -1.09, 2.17, 1.53, 6.94, repro,
2012-02-03,-0.03, -1.53, 2.84, 2.14, 1.49, 6.72, repro,
2012-02-05,0.33, -1.01, 3.98, 2.24, 1.59, 7.15, repro,
2012-02-06,-0.24, -2.74, -2.33, 2.16, 1.54, 6.99, repro,
2012-02-07,-0.35, -0.66, -3.54, 2.21, 1.54, 7.03, repro,
2012-02-08,0.52, -0.98, 4.29, 2.14, 1.48, 6.74, repro,
2012-02-09,-0.18, -3.04, 3.26, 2.18, 1.53, 6.89, repro,
2012-02-10,0.78, -1.02, -2.59, 2.15, 1.51, 6.80, repro,
2012-02-11,0.47, -1.05, 0.19, 2.14, 1.51, 6.81, repro,
2012-02-12,-0.38, -1.77, 4.70, 2.14, 1.51, 6.79, repro,
2012-02-13,-1.30, -1.96, 6.35, 2.23, 1.58, 7.26, repro,
2012-02-14,-0.08, -1.59, 16.38, 2.17, 1.50, 6.81, repro,
2012-02-15,-0.19, -2.44, 10.06, 2.15, 1.49, 6.76, repro,
2012-02-16,0.11, -1.35, 1.61, 2.15, 1.51, 6.79, repro,
2012-02-17,-1.89, -2.64, 0.73, 2.13, 1.50, 6.77, repro,
2012-02-18,-0.27, -1.82, 2.94, 2.17, 1.51, 6.83, repro,
2012-02-19,-0.54, -1.79, 9.60, 2.18, 1.52, 6.90, repro,
2012-02-20,-0.50, -2.24, 10.11, 2.16, 1.51, 6.82, repro,
2012-02-21,-0.89, -2.27, 12.58, 2.19, 1.53, 6.88, repro,
2012-02-22,-3.02, -1.56, 6.86, 2.22, 1.57, 7.01, repro,
2012-02-24,-1.70, -1.13, -1.51, 2.12, 1.46, 6.69, repro,
2012-02-25,-0.87, -0.56, 4.54, 2.15, 1.49, 6.82, repro,
2012-02-26,-1.13, -0.48, 7.31, 2.15, 1.50, 6.82, repro,
2012-02-27,-0.92, 0.29, 3.99, 2.14, 1.50, 6.80, repro,
2012-02-28,-0.30, -0.02, 2.30, 2.13, 1.50, 6.78, repro,
2012-02-29,-0.64, -0.30, 11.28, 2.12, 1.47, 6.70, repro,
2012-03-01,-1.83, -0.19, 8.86, 2.18, 1.49, 6.85, repro,
2012-03-02,-2.51, -0.26, 6.53, 2.23, 1.52, 7.06, repro,
2012-03-03,-2.40, -4.21, 5.15, 2.14, 1.49, 6.80, repro,
2012-03-04,-1.08, -1.02, 0.73, 2.12, 1.47, 6.70, repro,
2012-03-05,-0.11, -1.31, 0.41, 2.14, 1.47, 6.74, repro,
2012-03-06,-2.37, -2.11, 8.17, 2.22, 1.54, 7.03, repro,
2012-03-07,-0.56, -0.50, 13.73, 2.18, 1.49, 6.84, repro,
2012-03-08,-2.67, 0.24, 3.31, 2.18, 1.49, 6.83, repro,
2012-03-09,-1.64, 0.34, -7.37, 2.19, 1.52, 6.86, repro,
2012-03-10,-2.03, -1.82, 4.00, 2.16, 1.49, 6.81, repro,
2012-03-11,-2.39, -0.90, 7.32, 2.15, 1.49, 6.77, repro,
2012-03-12,-2.06, -1.19, 3.61, 2.21, 1.53, 7.00, repro,
2012-03-13,-2.80, 0.98, 8.48, 2.19, 1.49, 6.85, repro,
2012-03-14,-2.56, -0.44, 9.16, 2.17, 1.51, 6.88, repro,
2012-03-15,-2.07, -0.74, 3.78, 2.17, 1.49, 6.82, repro,
2012-03-16,-1.52, -3.02, 7.22, 2.13, 1.48, 6.72, repro,
2012-03-17,-1.89, -0.89, 5.83, 2.16, 1.49, 6.83, repro,
2012-03-18,-2.17, -0.01, 8.11, 2.24, 1.54, 6.98, repro,
2012-03-19,-2.67, -0.23, 10.45, 2.16, 1.49, 6.80, repro,
2012-03-20,-1.56, -0.28, 8.70, 2.11, 1.47, 6.69, repro,
2012-03-21,-2.54, -1.76, -1.25, 2.09, 1.46, 6.62, repro,
2012-03-22,-0.70, -0.92, 0.15, 2.12, 1.46, 6.64, repro,
2012-03-23,-0.65, -0.44, -0.45, 2.20, 1.52, 7.00, repro,
2012-03-24,-1.50, -0.94, -0.46, 2.16, 1.49, 6.82, repro,
2012-03-25,-0.16, -0.38, 2.62, 2.13, 1.46, 6.68, repro,
2012-03-26,-0.64, -0.83, 2.34, 2.13, 1.47, 6.70, repro,
2012-03-27,-2.14, -1.48, -0.88, 2.15, 1.48, 6.79, repro,
2012-03-28,-2.29, -0.01, -2.83, 2.16, 1.48, 6.79, repro,
2012-03-29,-4.12, -0.41, -0.39, 2.17, 1.50, 6.85, repro,
2012-03-30,-1.59, 0.58, 5.79, 2.20, 1.52, 6.94, repro,
2012-03-31,-2.22, -0.36, 10.97, 2.11, 1.46, 6.67, repro,
2012-04-01,-0.41, -0.59, 6.08, 2.11, 1.47, 6.71, repro,
2012-04-02,-1.06, -1.30, 2.60, 2.11, 1.47, 6.72, repro,
2012-04-03,-2.95, -1.16, -11.15, 2.11, 1.47, 6.66, repro,
2012-04-04,-3.30, -0.41, 1.73, 2.12, 1.48, 6.70, repro,
2012-04-05,-2.66, -1.07, -3.88, 2.10, 1.47, 6.67, repro,
2012-04-06,-1.75, -1.05, 1.49, 2.10, 1.47, 6.68, repro,
2012-04-07,-1.11, -2.79, -1.89, 2.11, 1.47, 6.70, repro,
2012-04-08,-3.95, -1.93, -7.92, 2.11, 1.47, 6.70, repro,
2012-04-09,-3.19, -0.85, -11.35, 2.14, 1.51, 6.79, repro,
2012-04-10,-1.38, -0.63, -6.25, 2.12, 1.47, 6.71, repro,
2012-04-11,-2.58, -0.85, -4.58, 2.10, 1.46, 6.65, repro,
2012-04-12,-1.62, -0.98, -6.65, 2.15, 1.51, 6.81, repro,
2012-04-13,-2.51, -1.18, -0.03, 2.12, 1.48, 6.75, repro,
2012-04-14,-1.38, -0.89, -4.21, 2.12, 1.47, 6.74, repro,
2012-04-15,-1.76, -0.52, -5.34, 2.11, 1.47, 6.68, repro,
2012-04-16,-1.94, -0.15, -1.42, 2.12, 1.47, 6.70, repro,
2012-04-17,-1.39, 0.12, -8.98, 2.11, 1.47, 6.72, repro,
2012-04-18,-0.89, -0.26, -3.04, 2.11, 1.47, 6.72, repro,
2012-04-19,-2.35, -1.19, -2.51, 2.10, 1.47, 6.71, repro,
2012-04-20,-1.93, -0.28, -7.79, 2.10, 1.47, 6.69, repro,
2012-04-21,-2.72, 0.05, -4.93, 2.12, 1.49, 6.74, repro,
2012-04-22,-1.34, -0.21, -10.45, 2.10, 1.47, 6.67, repro,
2012-04-23,-0.40, -0.92, -4.01, 2.14, 1.49, 6.83, repro,
2012-04-24,-2.63, -1.80, 3.78, 2.19, 1.54, 7.02, repro,
2012-04-25,-0.77, -1.72, -8.57, 2.21, 1.60, 7.41, repro,
2012-04-26,-1.73, -0.82, -3.39, 2.13, 1.47, 6.71, repro,
2012-04-27,0.35, 2.69, -5.32, 2.19, 1.49, 6.78, repro,
2012-04-28,-2.58, 2.80, 10.42, 2.16, 1.51, 6.90, repro,
2012-04-29,-3.00, 0.42, -4.02, 2.11, 1.48, 6.72, repro,
2012-04-30,-3.59, -0.10, 0.87, 2.09, 1.46, 6.63, repro,
2012-05-01,-1.54, -0.89, -1.23, 2.16, 1.51, 6.83, repro,